METAR Formatted Surface Weather Observation
Issued by NWS

Current Version | Previous Version | Text Only | Print | Product List | Glossary On
Versions: 1 2 3 4 5 6 7 8 9 10 11 12 13 14 15 16 17 18 19 20 21 22 23 24 25 26 27 28 29 30 31 32 33 34 35 36 37 38 39 40 41 42 43 44 45 46 47 48 49 50
396
SAUS41 KAKQ 230558
MTRNTU
METAR KNTU 230556Z 20004KT 10SM SCT080 OVC100 14/09 A2993 RMK AO2
CIG 080 RWY 05R SLP138 60000 T01390094 10144 20128 55008



USA.gov is the U.S. government's official web portal to all federal, state and local government web resources and services.